SL-14 DEB

Satellite information

Favourite Embed

Satellite Type and Status

DEBRISIN ORBIT

Key statistics

Satellite SL-14 DEB at a glance.

Uptime

13998

Days in orbit

Revolutions

≈ 14.5

Per day

Orbit

LEO

Low Earth Orbit

Inclination

82.5

Latest

Satellite identification and parameters

Extended collection of information and parameters for SL-14 DEB.

Object identification

Identified? True

Debris? True

Object name: SL-14 DEB

International designator: 1987-068BE

Object number (NORAD): 25227

Object ID (CCSDS): 25227

Country: COMMONWEALTH OF INDEPENDENT STATES (CIS)

Current information (Y/N): Y

RCS size: SMALL

Orbital parameters

Period: 99.35 minutes

Inclination: 82.5159 deg

SMA: 7105.654 km

Apoapsis: 737.708 km

Periapsis: 717.331 km

RAAN: 85.1865 deg

Eccentricy: 0.00143384

Argument of periapsis: 165.2792 deg

Mean anomaly: 194.8824 deg

Mean motion: 14.49427982 rev/day

Mean motion (dot): 0.00017916 rev/day2

B* drag term: 0.0046644091 1/REarth

Two-line elements (TLE)

Creation date: Dec. 13, 2025, 5:47 p.m.

Reference frame: TEME

Reference center: EARTH

Epoch: Dec. 13, 2025, 1:11 a.m. UTC

TLE line 0: 0 SL-14 DEB

TLE line 1: 1 25227U 87068BE 25347.04959490 .00017916 00000-0 46644-2 0 9998

TLE line 2: 2 25227 82.5159 85.1865 0014338 165.2792 194.8824 14.49427982429959

Live tracking on map

Real-time ground track for satellite SL-14 DEB.

In-orbit conjunctions

A list of the most updated potential collisions computed for object SL-14 DEB.

Target Orbit TCA Probability of collision Miss distance Type
NOAA 16 DEB SSO 2025-08-15 06:26:34 0.0001106642 95.0 (m) DEBRIS
CZ-4 DEB SSO 2025-04-05 01:00:21 0.0003141169 71.0 (m) DEBRIS
OSCAR 17 (DOVE) SSO 2024-10-09 01:18:39 0.0002569537 375.0 (m) PAYLOAD
CZ-6A DEB LEO 2024-10-06 22:57:23 0.0002879952 801.0 (m) DEBRIS
NOAA 16 DEB SSO 2024-08-02 15:26:53 0.0001240862 166.0 (m) DEBRIS

Associated space launch

Second generation soviet meteorological satellite

SL-14 DEB was lifted into orbit during the mission ‘Tsiklon-3 | Meteor-2 16’, on board a Tsiklon-3 space rocket.

The launch took place on Aug. 18, 1987, 2:27 a.m. from 32/1.

For more information about the launch, click the button.

Launch to space Tsiklon-3 | Meteor-2 16
Tsiklon-3 | Meteor-2 16

Agency: N/A

Status: Launch Successful

Launch date: Aug. 18, 1987, 2:27 a.m. UTC

Rocket: Tsiklon-3

Launch pad: 32/1

Location: Plesetsk Cosmodrome, Russian Federation

...

Latest news about this satellite

There are no fresh news available about this satellite. Check back as we update our databases every day.


Newsletter sign-up

Weekly statistics, charts and insights to help you stay on top of the space industry.